AirNav   Pilot Hours Calculator
 
 986 users online  

0TS1 Dooley Airport
Justin, Texas, USA

GOING TO JUSTIN?


FAA INFORMATION EFFECTIVE 22 APRIL 2021

Location

FAA Identifier: 0TS1
Lat/Long: 33-05-55.4370N 097-16-21.0610W
33-05.923950N 097-16.351017W
33.0987325,-97.2725169
(estimated)
Elevation: 650 ft. / 198 m (estimated)
Variation: 07E (1990)
From city: 1 mile NE of JUSTIN, TX
Time zone: UTC -5 (UTC -6 during Standard Time)
Zip code: 76247

Airport Operations

Airport use: Private use. Permission required prior to landing
Activation date: 01/1992
Control tower: no
ARTCC: FORT WORTH CENTER
FSS: FORT WORTH FLIGHT SERVICE STATION
Attendance: UNATNDD
Segmented circle: no

Airport Communications

WX ASOS at AFW (7 nm S): PHONE 817-491-6188
WX ASOS at DTO (7 nm NE): 119.325 (940-383-8457)
WX ASOS at DFW (17 nm SE): PHONE 972-615-2608
WX ASOS at FTW (17 nm S): PHONE 817-740-3346
WX AWOS-3 at LUD (18 nm NW): 118.225 (940-627-2365)

Nearby radio navigation aids

VOR radial/distance  VOR name  Freq  Var
FUZr334/13.4RANGER VORTAC115.7006E
TTTr314/18.1MAVERICK VOR/DME113.1006E
CVEr298/22.4COWBOY VOR/DME116.2006E
UKWr128/38.0BOWIE VORTAC117.1506E

 
NDB name  Hdg/Dist  Freq  Var  ID
PINCK195/11.725704EDT -.. -
MUFIN014/13.336508EFT ..-. -

Airport Services

Runway Information

Runway 17/35

Dimensions: 1750 x 75 ft. / 533 x 23 m
Surface: turf
RUNWAY 17  RUNWAY 35
Traffic pattern: leftleft

Airport Ownership and Management from official FAA records

Ownership: Privately-owned
Owner: DAVID M. DOOLEY
BOX 471
JUSTIN, TX 76247
Phone 817-648-3109

Airport Operational Statistics

Aircraft based on the field: 1
Single engine airplanes: 1
    

Additional Remarks

FOR CD CTC REGIONAL APCH AT 972-615-2799.

Instrument Procedures

There are no published instrument procedures at 0TS1.

Some nearby airports with instrument procedures:

KAFW - Fort Worth Alliance Airport (7 nm S)
KDTO - Denton Enterprise Airport (7 nm NE)
4T2 - Kenneth Copeland Airport (13 nm SW)
KDFW - Dallas-Fort Worth International Airport (17 nm SE)
KFTW - Fort Worth Meacham International Airport (17 nm S)
KLUD - Decatur Municipal Airport (18 nm NW)
 
Loc | Ops | Rwys | IFR | FBO | Links
Com | Nav | Svcs | Stats | Notes

City of Fort Worth
 
Area around 0TS1 (Dooley Airport)
 
Road maps at: MapQuest Bing Google
 
Aerial photo
No photo
 
Sectional chart

 
Airport distance calculator
Flying to Dooley Airport? Find the distance to fly.

From to 0TS1

Sunrise and sunset
Times for 14-May-2021
 Local
(UTC-5)
 Zulu
(UTC)
Morning civil twilight06:0411:04
Sunrise06:3111:31
Sunset20:2001:20
Evening civil twilight20:4701:47

Current date and time
Zulu (UTC)  15-May-2021 01:10:33
Local (UTC-5)  14-May-2021 20:10:33
 
METAR
KDTO 
7nm NE 
150053Z 15010KT 10SM CLR 21/14 A3006 RMK AO2 SLP175 T02110139
KAFW 
8nm S 
150053Z 15010G19KT 10SM FEW050 FEW080 FEW250 23/13 A3006 RMK AO2 SLP172 ACC DSNT N-NE T02280133
KFTW 
17nm S 
150053Z 15011KT 10SM CLR 22/14 A3007 RMK AO2 SLP178 T02170139
KDFW 
18nm SE 
150053Z 14013G19KT 10SM FEW048 FEW250 23/13 A3007 RMK AO2 SLP175 T02280128
KLUD 
18nm NW 
118.22 940-927-2365
150055Z AUTO 15009G14KT 10SM CLR 22/14 A3006 RMK AO2 T02220135
TAF
KAFW 
8nm S 
142101Z 1421/1518 16010KT P6SM BKN050 FM150100 15010KT P6SM SCT250 FM151300 17011KT P6SM BKN022 FM151700 17013G23KT P6SM BKN050
KFTW 
17nm S 
142101Z 1421/1518 16008KT P6SM BKN050 FM150100 15010KT P6SM SCT250 FM151300 17011KT P6SM BKN022 FM151700 17013G23KT P6SM BKN050
KDFW 
18nm SE 
142101Z 1421/1524 16011KT P6SM BKN050 FM150100 15010KT P6SM SCT250 FM151300 18011KT P6SM BKN022 FM151700 18013G23KT P6SM BKN035 FM152200 18015KT P6SM FEW045
NOTAMs
Click for the latest NOTAMs
NOTAMs are issued by the DoD/FAA and will open in a separate window not controlled by AirNav.

 

 
 

Would you like to see your business listed on this page?

 If your business provides an interesting product or service to pilots, flight crews, aircraft, or users of the Dooley Airport, you should consider listing it here.  To start the listing process, click on the button below
 
Add a business
 

Other Pages about Dooley Airport

Update a link
 
Copyright © AirNav, LLC. All rights reserved. Privacy Policy  Contact